Reading, PA

6:55 AM EST on February 06, 2016 (GMT -0500)
Reading Regional-Spaatz

Weather History for KRDG - October, 2011

Change the Weather History Date:

Sunday, October 2, 2011

  Actual Average Record
Temperature  
Mean Temperature 50 °F 58 °F  
Max Temperature 52 °F 69 °F 89 °F (1927)
Min Temperature 47 °F 48 °F 30 °F (1899)
Degree Days  
Heating Degree Days 15 7  
Month to date heating degree days 26 14  
Since 1 July heating degree days 69 93  
Cooling Degree Days 0 1  
Month to date cooling degree days 0 2  
Year to date cooling degree days 1323 889  
Moisture  
Dew Point 45 °F    
Average Humidity 85    
Maximum Humidity 93    
Minimum Humidity 77    
Precipitation  
Precipitation 0.26 in 0.16 in 3.39 in (1929)
Month to date precipitation 0.49 0.31  
Year to date precipitation 45.39 33.61  
Sea Level Pressure  
Sea Level Pressure 29.81 in    
Wind  
Wind Speed 5 mph (West)    
Max Wind Speed 13 mph    
Max Gust Speed 14 mph    
Visibility 8 miles    
Events Rain    
T = Trace of Precipitation, MM = Missing Value Source: NWS Daily Summary

Daily Weather History Graph

Daily Weather History Graph

Search for Another Location

Airport or City:

Trip Planner

Search our weather history database for the weather conditions in past years. The results will help you decide how hot, cold, wet, or windy it might be!

Date:

Astronomy

Oct. 02, 2011 Rise Set
Actual Time 7:00 AM EDT 6:44 PM EDT
Civil Twilight 6:33 AM EDT 7:11 PM EDT
Nautical Twilight 6:02 AM EDT 7:43 PM EDT
Astronomical Twilight 5:30 AM EDT 8:15 PM EDT
Moon 1:06 PM EDT (10/2) 10:40 PM EDT (10/2)
Length of Visible Light 12h 38m
Length of Day
11h 43m
Waxing Crescent, 34% of the Moon is Illuminated
Oct 2
Waxing Crescent
Oct 3
First Quarter
Oct 11
Full
Oct 19
Last Quarter
Oct 26
New

Hourly Weather History & Observations

Time (EDT) Temp. Windchill Dew Point Humidity Pressure Visibility Wind Dir Wind Speed Gust Speed Precip Events Conditions
12:05 AM 48.2 °F - 46.4 °F 93% 29.75 in 10.0 mi NNW 5.8 mph - N/A   Overcast
12:54 AM 48.0 °F - 45.0 °F 89% 29.76 in 10.0 mi North 5.8 mph - 0.02 in Rain Light Rain
1:41 AM 48.2 °F - 44.6 °F 87% 29.74 in 10.0 mi North 6.9 mph - 0.01 in   Overcast
1:54 AM 48.0 °F - 45.0 °F 89% 29.75 in 10.0 mi North 6.9 mph - 0.01 in   Overcast
2:54 AM 48.0 °F - 44.1 °F 86% 29.73 in 10.0 mi NNW 6.9 mph - 0.00 in Rain Light Rain
3:33 AM 48.2 °F - 44.6 °F 87% 29.72 in 10.0 mi West 4.6 mph - 0.00 in   Overcast
3:52 AM 46.4 °F 44.3 °F 44.6 °F 93% 29.73 in 8.0 mi SW 4.6 mph - 0.01 in Rain Rain
3:54 AM 46.9 °F - 45.0 °F 93% 29.75 in 6.0 mi WSW 3.5 mph - 0.02 in Rain Heavy Rain
4:09 AM 46.4 °F 42.9 °F 44.6 °F 93% 29.73 in 4.0 mi WNW 6.9 mph - 0.06 in Rain Rain
4:54 AM 46.9 °F - 44.1 °F 90% 29.74 in 10.0 mi NW 8.1 mph - 0.10 in Rain Light Rain
5:36 AM 46.4 °F 42.9 °F 44.6 °F 93% 29.74 in 7.0 mi WNW 6.9 mph - 0.05 in Rain Rain
5:54 AM 46.9 °F - 44.1 °F 90% 29.75 in 8.0 mi WNW 4.6 mph - 0.07 in Rain Rain
6:54 AM 46.9 °F - 44.1 °F 90% 29.76 in 10.0 mi WNW 5.8 mph - 0.02 in Rain Light Rain
7:14 AM 46.4 °F 44.3 °F 44.6 °F 93% 29.75 in 5.0 mi WNW 4.6 mph - 0.00 in Rain Light Rain
7:54 AM 46.9 °F - 44.1 °F 90% 29.79 in 10.0 mi NW 4.6 mph - 0.00 in Rain Light Rain
8:01 AM 46.4 °F 43.5 °F 44.6 °F 93% 29.77 in 10.0 mi WNW 5.8 mph - N/A   Overcast
8:54 AM 46.9 °F - 45.0 °F 93% 29.81 in 5.0 mi NNW 6.9 mph - 0.01 in   Overcast
9:19 AM 48.2 °F - 44.6 °F 87% 29.79 in 4.0 mi WNW 5.8 mph - 0.00 in   Overcast
9:46 AM 48.2 °F - 44.6 °F 87% 29.79 in 4.0 mi West 6.9 mph - 0.00 in   Overcast
9:54 AM 48.0 °F - 44.1 °F 86% 29.81 in 4.0 mi West 9.2 mph - 0.00 in   Overcast
10:21 AM 48.2 °F - 44.6 °F 87% 29.79 in 10.0 mi WNW 8.1 mph - N/A   Overcast
10:54 AM 50.0 °F - 44.1 °F 80% 29.81 in 10.0 mi West 5.8 mph - N/A   Overcast
11:54 AM 50.0 °F - 44.1 °F 80% 29.82 in 10.0 mi East 3.5 mph - N/A   Overcast
12:54 PM 51.1 °F - 44.1 °F 77% 29.82 in 10.0 mi Calm Calm - N/A   Overcast
1:01 PM 51.8 °F - 44.6 °F 76% 29.80 in 10.0 mi Calm Calm - N/A   Overcast
1:28 PM 51.8 °F - 44.6 °F 76% 29.79 in 10.0 mi West 4.6 mph - N/A   Mostly Cloudy
1:54 PM 52.0 °F - 45.0 °F 77% 29.81 in 10.0 mi WSW 4.6 mph - N/A   Overcast
2:54 PM 51.1 °F - 46.0 °F 83% 29.82 in 5.0 mi SSW 6.9 mph - 0.00 in Rain Light Rain
3:13 PM 50.0 °F - 46.4 °F 87% 29.81 in 2.0 mi SSW 6.9 mph - 0.00 in Rain Light Rain
3:54 PM 50.0 °F - 46.9 °F 89% 29.84 in 2.0 mi SSW 5.8 mph - 0.01 in Rain Light Rain
4:01 PM 50.0 °F - 46.4 °F 87% 29.82 in 3.0 mi SW 8.1 mph - 0.01 in Rain Light Rain
4:12 PM 50.0 °F - 46.4 °F 87% 29.82 in 6.0 mi WSW 6.9 mph - 0.01 in Rain Light Rain
4:40 PM 48.2 °F - 46.4 °F 93% 29.82 in 5.0 mi WSW 6.9 mph - 0.01 in   Overcast
4:52 PM 48.2 °F - 46.4 °F 93% 29.82 in 3.0 mi West 6.9 mph - 0.01 in Rain Light Rain
4:54 PM 48.9 °F - 46.9 °F 93% 29.84 in 3.0 mi West 6.9 mph - 0.01 in Rain Light Rain
5:20 PM 48.2 °F - 46.4 °F 93% 29.83 in 8.0 mi WSW 5.8 mph - 0.00 in Rain Light Rain
6:17 PM 48.2 °F - 46.4 °F 93% 29.84 in 10.0 mi Calm Calm - N/A   Overcast
6:49 PM 48.2 °F - 46.4 °F 93% 29.84 in 10.0 mi WSW 3.5 mph - N/A   Mostly Cloudy
6:54 PM 50.0 °F - 46.0 °F 86% 29.86 in 10.0 mi SW 3.5 mph - N/A   Mostly Cloudy
7:54 PM 48.9 °F - 46.0 °F 90% 29.88 in 10.0 mi SW 3.5 mph - 0.00 in   Overcast
8:54 PM 50.0 °F - 46.9 °F 89% 29.89 in 10.0 mi West 4.6 mph - N/A   Overcast
9:22 PM 48.2 °F - 46.4 °F 93% 29.89 in 10.0 mi Calm Calm - N/A   Overcast
9:31 PM 48.2 °F - 46.4 °F 93% 29.88 in 9.0 mi West 3.5 mph - N/A   Overcast
9:54 PM 48.9 °F - 45.0 °F 86% 29.90 in 10.0 mi West 5.8 mph - N/A   Overcast
10:01 PM 48.2 °F - 46.4 °F 93% 29.88 in 10.0 mi West 5.8 mph - N/A   Overcast
10:10 PM 48.2 °F - 44.6 °F 87% 29.88 in 10.0 mi West 5.8 mph - N/A   Overcast
10:34 PM 48.2 °F - 46.4 °F 93% 29.88 in 10.0 mi SW 4.6 mph - N/A   Overcast
10:54 PM 48.0 °F - 46.0 °F 93% 29.91 in 10.0 mi WSW 5.8 mph - N/A   Overcast
11:33 PM 48.2 °F - 46.4 °F 93% 29.89 in 10.0 mi Calm Calm - N/A   Overcast
11:54 PM 48.9 °F - 45.0 °F 86% 29.91 in 10.0 mi Calm Calm - N/A   Overcast